User: anonymous   Login
Location: Unspecified
(0.0000°N, 0.0000°E)
Time: 10:17:41
(UTC+00:00)
Language:

STRELA 3 - Orbit

View from above orbital plane
View from above orbital plane
View from above satellite
View from above satellite

Ground track
Ground track

The orbit data is extracted from the following two-line orbital elements,

1 37153U 10043B   18232.43171260 +.00000021 +00000-0 +80879-4 0  9996
2 37153 082.4543 058.4661 0007164 160.8153 199.3196 12.40729862360030
Epoch (UTC): 20 August 2018 10:21:39
Eccentricity: 0.0007164
inclination: 82.4543°
perigee height: 1498 km
apogee height: 1509 km
right ascension of ascending node: 58.4661°
argument of perigee: 160.8153°
revolutions per day: 12.40729862
mean anomaly at epoch: 199.3196°
orbit number at epoch: 36003

The dashed part of the orbit path shows where the satellite is in the earth's shadow,  

DLR